• In France
  • List of Countries
  • For 7 days
  • Water Temperature
  • Satellite Maps
  • Weather Map
  • Weather Widgets
  • user-avatar
    Login

    Hourly Weather Zhelobovo

    Today, 27 May, Sunday

    Time Temperature Precipitation Wind Pressure Humidity
    00:00 +9°C° 0 mm 1 mps 760 mmHg 67%
    01:00 +9°C° 0 mm 1 mps 760 mmHg 69%
    02:00 +7°C° 0 mm 2 mps 760 mmHg 71%
    03:00 +7°C° 0 mm 2 mps 760 mmHg 73%
    04:00 +8°C° 0 mm 2 mps 760 mmHg 73%
    05:00 +8°C° 0 mm 2 mps 760 mmHg 74%
    06:00 +9°C° 0 mm 2 mps 759 mmHg 74%
    07:00 +12°C° 0 mm 2 mps 759 mmHg 69%
    08:00 +13°C° 0 mm 2 mps 759 mmHg 64%
    09:00 +14°C° 0 mm 3 mps 759 mmHg 59%
    10:00 +16°C° 0 mm 3 mps 758 mmHg 56%
    11:00 +17°C° 0 mm 3 mps 758 mmHg 53%
    12:00 +18°C° 0 mm 4 mps 757 mmHg 51%
    13:00 +19°C° 0 mm 4 mps 757 mmHg 51%
    14:00 +19°C° 0 mm 5 mps 756 mmHg 52%
    15:00 +20°C° 0 mm 5 mps 756 mmHg 53%
    16:00 +19°C° 0 mm 5 mps 755 mmHg 57%
    17:00 +19°C° 0 mm 4 mps 754 mmHg 61%
    18:00 +19°C° 0 mm 4 mps 754 mmHg 65%
    19:00 +17°C° 0 mm 4 mps 753 mmHg 70%
    20:00 +15°C° 0 mm 4 mps 753 mmHg 75%
    21:00 +13°C° 0 mm 4 mps 753 mmHg 79%
    22:00 +13°C° 0 mm 4 mps 753 mmHg 79%
    23:00 +13°C° 0 mm 4 mps 752 mmHg 79%

    Tomorrow, 28 May, Monday

    Time Temperature Precipitation Wind Pressure Humidity
    00:00 +13°C° 0 mm 5 mps 752 mmHg 78%
    01:00 +12°C° 0 mm 4 mps 752 mmHg 81%
    02:00 +12°C° 0 mm 4 mps 752 mmHg 83%
    03:00 +12°C° 0 mm 4 mps 752 mmHg 86%
    04:00 +12°C° 0 mm 3 mps 753 mmHg 86%
    05:00 +12°C° 0 mm 3 mps 753 mmHg 87%
    06:00 +13°C° 0 mm 3 mps 753 mmHg 88%
    07:00 +14°C° 0 mm 4 mps 754 mmHg 79%
    08:00 +15°C° 0 mm 4 mps 754 mmHg 71%
    09:00 +17°C° 0 mm 4 mps 754 mmHg 63%
    10:00 +17°C° 0 mm 5 mps 755 mmHg 59%
    11:00 +17°C° 0 mm 5 mps 755 mmHg 55%
    12:00 +19°C° 0 mm 5 mps 755 mmHg 51%
    13:00 +19°C° 0 mm 5 mps 755 mmHg 49%
    14:00 +19°C° 0 mm 5 mps 755 mmHg 48%
    15:00 +17°C° 0 mm 5 mps 756 mmHg 46%
    16:00 +17°C° 0 mm 5 mps 756 mmHg 49%
    17:00 +17°C° 0 mm 4 mps 756 mmHg 52%
    18:00 +17°C° 0 mm 4 mps 756 mmHg 55%
    19:00 +14°C° 0 mm 3 mps 756 mmHg 58%
    20:00 +12°C° 0 mm 3 mps 757 mmHg 61%
    21:00 +10°C° 0 mm 3 mps 757 mmHg 64%
    22:00 +9°C° 0 mm 3 mps 757 mmHg 65%
    23:00 +8°C° 0 mm 2 mps 758 mmHg 65%

    Day after tomorrow, 29 May, Tuesday

    Time Temperature Precipitation Wind Pressure Humidity
    00:00 +8°C° 0 mm 2 mps 758 mmHg 65%
    01:00 +7°C° 0 mm 2 mps 758 mmHg 66%
    02:00 +7°C° 0 mm 2 mps 758 mmHg 66%
    03:00 +7°C° 0 mm 1 mps 758 mmHg 67%
    04:00 +8°C° 0 mm 1 mps 759 mmHg 67%
    05:00 +9°C° 0 mm 1 mps 759 mmHg 68%
    06:00 +10°C° 0 mm 1 mps 759 mmHg 68%
    07:00 +10°C° 0 mm 2 mps 759 mmHg 63%
    08:00 +13°C° 0 mm 2 mps 759 mmHg 58%
    09:00 +15°C° 0 mm 2 mps 758 mmHg 53%
    10:00 +16°C° 0 mm 2 mps 758 mmHg 51%
    11:00 +17°C° 0 mm 3 mps 758 mmHg 49%
    12:00 +18°C° 0 mm 3 mps 757 mmHg 48%
    13:00 +19°C° 0 mm 3 mps 757 mmHg 48%
    14:00 +19°C° 0 mm 3 mps 756 mmHg 49%
    15:00 +20°C° 0 mm 3 mps 756 mmHg 49%
    16:00 +19°C° 0 mm 3 mps 755 mmHg 53%
    17:00 +19°C° 0 mm 3 mps 755 mmHg 58%
    18:00 +19°C° 0 mm 3 mps 754 mmHg 62%
    19:00 +17°C° 0 mm 3 mps 754 mmHg 66%
    20:00 +14°C° 0 mm 3 mps 753 mmHg 71%
    21:00 +13°C° 0 mm 3 mps 753 mmHg 76%
    22:00 +12°C° 0 mm 3 mps 753 mmHg 77%
    23:00 +11°C° 0 mm 3 mps 752 mmHg 77%

    30 May, Wednesday

    Time Temperature Precipitation Wind Pressure Humidity
    00:00 +11°C° 0 mm 3 mps 752 mmHg 78%
    01:00 +11°C° 0 mm 3 mps 752 mmHg 79%
    02:00 +10°C° 0 mm 4 mps 751 mmHg 80%
    03:00 +10°C° 0 mm 4 mps 751 mmHg 81%
    04:00 +11°C° 0 mm 4 mps 751 mmHg 80%
    05:00 +10°C° 0 mm 5 mps 750 mmHg 79%
    06:00 +12°C° 0 mm 5 mps 750 mmHg 79%
    07:00 +14°C° 0 mm 5 mps 749 mmHg 75%
    08:00 +16°C° 0 mm 6 mps 749 mmHg 72%
    09:00 +19°C° 0 mm 6 mps 748 mmHg 69%
    10:00 +20°C° 0 mm 6 mps 748 mmHg 66%
    11:00 +21°C° 0 mm 7 mps 747 mmHg 63%
    12:00 +23°C° 0 mm 7 mps 747 mmHg 59%
    13:00 +23°C° 0 mm 7 mps 746 mmHg 59%
    14:00 +24°C° 0 mm 7 mps 746 mmHg 59%
    15:00 +24°C° 0 mm 7 mps 745 mmHg 59%
    16:00 +23°C° 0.1 mm 7 mps 745 mmHg 63%
    17:00 +23°C° 0.1 mm 6 mps 744 mmHg 67%
    18:00 +22°C° 0.1 mm 6 mps 744 mmHg 70%
    19:00 +21°C° 0.1 mm 6 mps 743 mmHg 74%
    20:00 +20°C° 0.1 mm 5 mps 743 mmHg 77%
    21:00 +19°C° 0.1 mm 5 mps 742 mmHg 80%
    22:00 +17°C° 0 mm 5 mps 742 mmHg 82%
    23:00 +17°C° 0 mm 5 mps 742 mmHg 83%

    31 May, Thursday

    Time Temperature Precipitation Wind Pressure Humidity
    00:00 +16°C° 0 mm 5 mps 741 mmHg 85%
    01:00 +16°C° 0.1 mm 5 mps 741 mmHg 88%
    02:00 +15°C° 0.1 mm 5 mps 741 mmHg 90%
    03:00 +15°C° 0.1 mm 4 mps 741 mmHg 93%
    04:00 +14°C° 0 mm 4 mps 742 mmHg 88%
    05:00 +13°C° 0 mm 4 mps 742 mmHg 83%
    06:00 +12°C° 0 mm 4 mps 742 mmHg 78%
    07:00 +13°C° 0 mm 4 mps 742 mmHg 73%
    08:00 +13°C° 0 mm 4 mps 742 mmHg 68%
    09:00 +13°C° 0 mm 4 mps 743 mmHg 63%
    10:00 +14°C° 0 mm 3 mps 743 mmHg 61%
    11:00 +16°C° 0 mm 3 mps 743 mmHg 59%
    12:00 +16°C° 0 mm 3 mps 743 mmHg 56%
    13:00 +17°C° 0 mm 3 mps 743 mmHg 54%
    14:00 +18°C° 0 mm 3 mps 743 mmHg 52%
    15:00 +19°C° 0 mm 3 mps 743 mmHg 50%
    16:00 +18°C° 0 mm 3 mps 743 mmHg 54%
    17:00 +18°C° 0 mm 3 mps 743 mmHg 58%
    18:00 +17°C° 0 mm 2 mps 743 mmHg 61%
    19:00 +16°C° 0 mm 3 mps 743 mmHg 63%
    20:00 +14°C° 0 mm 3 mps 743 mmHg 65%
    21:00 +13°C° 0 mm 3 mps 743 mmHg 67%
    22:00 +13°C° 0 mm 3 mps 743 mmHg 67%
    23:00 +12°C° 0 mm 4 mps 743 mmHg 67%

    1 June, Friday

    Time Temperature Precipitation Wind Pressure Humidity
    00:00 +12°C° 0 mm 4 mps 743 mmHg 67%
    01:00 +11°C° 0 mm 4 mps 743 mmHg 69%
    02:00 +10°C° 0 mm 4 mps 743 mmHg 70%
    03:00 +10°C° 0 mm 4 mps 742 mmHg 71%
    04:00 +10°C° 0.2 mm 4 mps 742 mmHg 74%
    05:00 +8°C° 0.2 mm 4 mps 742 mmHg 76%
    06:00 +8°C° 0.2 mm 4 mps 742 mmHg 78%
    07:00 +10°C° 0.1 mm 4 mps 742 mmHg 74%
    08:00 +10°C° 0.1 mm 5 mps 742 mmHg 70%
    09:00 +12°C° 0.1 mm 5 mps 742 mmHg 66%
    10:00 +13°C° 0 mm 5 mps 742 mmHg 62%
    11:00 +13°C° 0 mm 6 mps 742 mmHg 58%
    12:00 +14°C° 0 mm 6 mps 742 mmHg 54%
    13:00 +14°C° 0.1 mm 6 mps 742 mmHg 56%
    14:00 +14°C° 0.1 mm 6 mps 742 mmHg 58%
    15:00 +14°C° 0.1 mm 6 mps 742 mmHg 60%
    16:00 +13°C° 0.3 mm 6 mps 742 mmHg 64%
    17:00 +13°C° 0.3 mm 6 mps 742 mmHg 68%
    18:00 +12°C° 0.3 mm 5 mps 742 mmHg 72%
    19:00 +10°C° 0.2 mm 5 mps 743 mmHg 76%
    20:00 +9°C° 0.2 mm 5 mps 743 mmHg 81%
    21:00 +8°C° 0.2 mm 4 mps 743 mmHg 85%
    22:00 +7°C° 0.1 mm 4 mps 743 mmHg 86%
    23:00 +6°C° 0.1 mm 4 mps 743 mmHg 86%
    Show more